| time (UTC) | temp F | wind direction | speed MPH | gust MPH | rain 1hr in | rain 24hr in | rain mn in | humidity % | barometer mb |
| 20260510204508 | 60 | 267 | 9.0 | 18.0 | 0.00 | 0.00 | 0.00 | 34 | 1020.6 |
| 20260510204001 | 59 | 327 | 7.0 | 18.0 | 0.00 | 0.00 | 0.00 | 31 | 1020.6 |
| 20260510203502 | 60 | 9 | 8.0 | 19.0 | 0.00 | 0.00 | 0.00 | 33 | 1020.7 |
| 20260510203010 | 60 | 321 | 9.0 | 19.0 | 0.00 | 0.00 | 0.00 | 33 | 1020.7 |
| 20260510202506 | 60 | 309 | 8.0 | 18.0 | 0.00 | 0.00 | 0.00 | 32 | 1020.6 |
| 20260510202007 | 60 | 259 | 11.0 | 18.0 | 0.00 | 0.00 | 0.00 | 34 | 1020.6 |
| 20260510201506 | 60 | 42 | 6.0 | 15.0 | 0.00 | 0.00 | 0.00 | 32 | 1020.5 |
| 20260510201007 | 59 | 304 | 7.0 | 15.0 | 0.00 | 0.00 | 0.00 | 35 | 1020.5 |
| 20260510200506 | 59 | 15 | 6.0 | 21.0 | 0.00 | 0.00 | 0.00 | 33 | 1020.6 |
| 20260510200006 | 61 | 47 | 7.0 | 21.0 | 0.00 | 0.00 | 0.00 | 33 | 1020.5 |
| 20260510195502 | 60 | 327 | 10.0 | 21.0 | 0.00 | 0.00 | 0.00 | 33 | 1020.5 |
| 20260510195002 | 59 | 250 | 4.0 | 16.0 | 0.00 | 0.00 | 0.00 | 38 | 1020.6 |
| 20260510194512 | 59 | 327 | 4.0 | 16.0 | 0.00 | 0.00 | 0.00 | 35 | 1020.6 |
| 20260510194006 | 60 | 273 | 6.0 | 17.0 | 0.00 | 0.00 | 0.00 | 36 | 1020.6 |
| 20260510193506 | 61 | 291 | 10.0 | 17.0 | 0.00 | 0.00 | 0.00 | 37 | 1020.7 |
| 20260510193016 | 60 | 78 | 6.0 | 13.0 | 0.00 | 0.00 | 0.00 | 35 | 1020.6 |
| 20260510192503 | 59 | 13 | 6.0 | 16.0 | 0.00 | 0.00 | 0.00 | 39 | 1020.5 |
| 20260510192007 | 59 | 301 | 8.0 | 16.0 | 0.00 | 0.00 | 0.00 | 34 | 1020.5 |
| 20260510191518 | 59 | 18 | 8.0 | 16.0 | 0.00 | 0.00 | 0.00 | 35 | 1020.6 |
| 20260510191008 | 58 | 275 | 9.0 | 20.0 | 0.00 | 0.00 | 0.00 | 37 | 1020.5 |
| 20260510190502 | 59 | 323 | 6.0 | 20.0 | 0.00 | 0.00 | 0.00 | 36 | 1020.5 |
| 20260510190017 | 60 | 32 | 5.0 | 15.0 | 0.00 | 0.00 | 0.00 | 36 | 1020.6 |
| 20260510185506 | 60 | 273 | 7.0 | 16.0 | 0.00 | 0.00 | 0.00 | 37 | 1020.7 |
| 20260510185002 | 58 | 321 | 6.0 | 19.0 | 0.00 | 0.00 | 0.00 | 38 | 1020.7 |
| 20260510184510 | 58 | 296 | 11.0 | 19.0 | 0.00 | 0.00 | 0.00 | 41 | 1020.7 |
| 20260510184006 | 58 | 279 | 7.0 | 19.0 | 0.00 | 0.00 | 0.00 | 37 | 1020.8 |
| 20260510183506 | 58 | 241 | 5.0 | 18.0 | 0.00 | 0.00 | 0.00 | 43 | 1020.7 |
| 20260510183010 | 57 | 319 | 10.0 | 20.0 | 0.00 | 0.00 | 0.00 | 38 | 1020.7 |
| 20260510182504 | 57 | 296 | 4.0 | 20.0 | 0.00 | 0.00 | 0.00 | 42 | 1020.6 |
| 20260510182009 | 56 | 312 | 5.0 | 15.0 | 0.00 | 0.00 | 0.00 | 39 | 1020.7 |
| 20260510181522 | 57 | 319 | 6.0 | 15.0 | 0.00 | 0.00 | 0.00 | 40 | 1020.8 |
| 20260510181002 | 56 | 286 | 5.0 | 18.0 | 0.00 | 0.00 | 0.00 | 41 | 1020.8 |
| 20260510180506 | 57 | 36 | 9.0 | 18.0 | 0.00 | 0.00 | 0.00 | 39 | 1020.9 |
| 20260510180007 | 59 | 259 | 9.0 | 16.0 | 0.00 | 0.00 | 0.00 | 39 | 1020.8 |
| 20260510175503 | 58 | 51 | 3.0 | 17.0 | 0.00 | 0.00 | 0.00 | 43 | 1020.8 |
| 20260510175007 | 57 | 307 | 5.0 | 17.0 | 0.00 | 0.00 | 0.00 | 43 | 1020.8 |
| 20260510174515 | 57 | 313 | 6.0 | 13.0 | 0.00 | 0.00 | 0.00 | 42 | 1020.8 |
| 20260510174006 | 56 | 48 | 5.0 | 19.0 | 0.00 | 0.00 | 0.00 | 46 | 1020.8 |
| 20260510173506 | 57 | 307 | 8.0 | 19.0 | 0.00 | 0.00 | 0.00 | 41 | 1020.9 |
| 20260510173018 | 57 | 22 | 3.0 | 12.0 | 0.00 | 0.00 | 0.00 | 44 | 1020.9 |
| 20260510172509 | 57 | 313 | 6.0 | 13.0 | 0.00 | 0.00 | 0.00 | 47 | 1020.8 |
| 20260510172003 | 57 | 334 | 5.0 | 17.0 | 0.00 | 0.00 | 0.00 | 43 | 1020.9 |
| 20260510171516 | 57 | 284 | 7.0 | 17.0 | 0.00 | 0.00 | 0.00 | 41 | 1020.8 |
| 20260510171008 | 58 | 297 | 4.0 | 14.0 | 0.00 | 0.00 | 0.00 | 42 | 1020.7 |
| 20260510170506 | 58 | 51 | 6.0 | 18.0 | 0.00 | 0.00 | 0.00 | 46 | 1020.7 |
| 20260510170010 | 58 | 59 | 8.0 | 18.0 | 0.00 | 0.00 | 0.00 | 42 | 1020.9 |
| 20260510165503 | 58 | 67 | 6.0 | 15.0 | 0.00 | 0.00 | 0.00 | 41 | 1020.9 |
| 20260510165008 | 58 | 317 | 7.0 | 19.0 | 0.00 | 0.00 | 0.00 | 44 | 1020.9 |
| 20260510164523 | 57 | 27 | 9.0 | 19.0 | 0.00 | 0.00 | 0.00 | 44 | 1020.9 |
| 20260510164003 | 56 | 294 | 8.0 | 17.0 | 0.00 | 0.00 | 0.00 | 42 | 1020.9 |
| 20260510163506 | 56 | 28 | 8.0 | 17.0 | 0.00 | 0.00 | 0.00 | 43 | 1021.0 |
| 20260510163025 | 55 | 56 | 5.0 | 16.0 | 0.00 | 0.00 | 0.00 | 44 | 1021.0 |
| 20260510162503 | 55 | 309 | 6.0 | 16.0 | 0.00 | 0.00 | 0.00 | 43 | 1021.0 |
| 20260510162011 | 55 | 298 | 6.0 | 14.0 | 0.00 | 0.00 | 0.00 | 42 | 1020.9 |
| 20260510161522 | 55 | 302 | 5.0 | 15.0 | 0.00 | 0.00 | 0.00 | 42 | 1021.0 |
| 20260510161010 | 56 | 296 | 6.0 | 17.0 | 0.00 | 0.00 | 0.00 | 42 | 1020.9 |
| 20260510160510 | 56 | 302 | 9.0 | 17.0 | 0.00 | 0.00 | 0.00 | 42 | 1020.9 |
| 20260510160012 | 56 | 34 | 7.0 | 13.0 | 0.00 | 0.00 | 0.00 | 41 | 1020.7 |
| 20260510155506 | 56 | 49 | 7.0 | 12.0 | 0.00 | 0.00 | 0.00 | 42 | 1020.7 |
| 20260510155003 | 56 | 265 | 5.0 | 12.0 | 0.00 | 0.00 | 0.00 | 40 | 1020.7 |
| 20260510154522 | 56 | 13 | 3.0 | 13.0 | 0.00 | 0.00 | 0.00 | 43 | 1020.7 |
| 20260510154010 | 56 | 38 | 5.0 | 13.0 | 0.00 | 0.00 | 0.00 | 44 | 1020.7 |
| 20260510153506 | 55 | 61 | 5.0 | 10.0 | 0.00 | 0.00 | 0.00 | 44 | 1020.7 |
| 20260510153016 | 55 | 317 | 4.0 | 11.0 | 0.00 | 0.00 | 0.00 | 46 | 1020.6 |
| 20260510152510 | 55 | 360 | 2.0 | 11.0 | 0.00 | 0.00 | 0.00 | 45 | 1020.5 |
| 20260510152010 | 54 | 325 | 3.0 | 12.0 | 0.00 | 0.00 | 0.00 | 48 | 1020.6 |
| 20260510151511 | 53 | 53 | 6.0 | 12.0 | 0.00 | 0.00 | 0.00 | 48 | 1020.5 |
| 20260510151007 | 53 | 261 | 6.0 | 12.0 | 0.00 | 0.00 | 0.00 | 46 | 1020.5 |
| 20260510150507 | 53 | 30 | 5.0 | 11.0 | 0.00 | 0.00 | 0.00 | 48 | 1020.5 |
| 20260510150015 | 52 | 93 | 4.0 | 12.0 | 0.00 | 0.00 | 0.00 | 49 | 1020.6 |
| 20260510145507 | 51 | 44 | 5.0 | 12.0 | 0.00 | 0.00 | 0.00 | 48 | 1020.5 |
| 20260510145007 | 51 | 298 | 5.0 | 11.0 | 0.00 | 0.00 | 0.00 | 48 | 1020.5 |
| 20260510144520 | 51 | 41 | 3.0 | 11.0 | 0.00 | 0.00 | 0.00 | 48 | 1020.6 |
| 20260510144007 | 51 | 31 | 4.0 | 10.0 | 0.00 | 0.00 | 0.00 | 51 | 1020.6 |
| 20260510143506 | 51 | 9 | 3.0 | 8.0 | 0.00 | 0.00 | 0.00 | 51 | 1020.6 |
| 20260510143023 | 51 | 331 | 3.0 | 10.0 | 0.00 | 0.00 | 0.00 | 50 | 1020.5 |
| 20260510142507 | 50 | 315 | 4.0 | 10.0 | 0.00 | 0.00 | 0.00 | 51 | 1020.4 |
| 20260510142005 | 50 | 65 | 2.0 | 8.0 | 0.00 | 0.00 | 0.00 | 53 | 1020.4 |
| 20260510141520 | 50 | 347 | 3.0 | 9.0 | 0.00 | 0.00 | 0.00 | 53 | 1020.4 |
| 20260510141010 | 50 | 33 | 5.0 | 9.0 | 0.00 | 0.00 | 0.00 | 54 | 1020.4 |
| 20260510140511 | 49 | 88 | 3.0 | 9.0 | 0.00 | 0.00 | 0.00 | 55 | 1020.4 |
| 20260510140016 | 49 | 153 | 1.0 | 9.0 | 0.00 | 0.00 | 0.00 | 57 | 1020.4 |
| 20260510135504 | 49 | 330 | 1.0 | 6.0 | 0.00 | 0.00 | 0.00 | 56 | 1020.3 |
| 20260510135006 | 48 | 87 | 2.0 | 7.0 | 0.00 | 0.00 | 0.00 | 56 | 1020.3 |
| 20260510134505 | 48 | 67 | 2.0 | 7.0 | 0.00 | 0.00 | 0.00 | 58 | 1020.3 |
| 20260510134002 | 48 | 80 | 3.0 | 7.0 | 0.00 | 0.00 | 0.00 | 58 | 1020.3 |
| 20260510133503 | 47 | 85 | 4.0 | 7.0 | 0.00 | 0.00 | 0.00 | 59 | 1020.2 |
| 20260510133004 | 47 | 61 | 3.0 | 7.0 | 0.00 | 0.00 | 0.00 | 60 | 1020.2 |
| 20260510132503 | 46 | 74 | 3.0 | 7.0 | 0.00 | 0.00 | 0.00 | 61 | 1020.2 |
| 20260510132003 | 46 | 47 | 3.0 | 7.0 | 0.00 | 0.00 | 0.00 | 63 | 1020.1 |
| 20260510131512 | 45 | 67 | 3.0 | 7.0 | 0.00 | 0.00 | 0.00 | 62 | 1020.0 |
| 20260510131003 | 45 | 63 | 1.0 | 4.0 | 0.00 | 0.00 | 0.00 | 64 | 1020.1 |
| 20260510130503 | 44 | 48 | 1.0 | 5.0 | 0.00 | 0.00 | 0.00 | 64 | 1020.0 |
| 20260510130007 | 44 | 83 | 1.0 | 5.0 | 0.00 | 0.00 | 0.00 | 66 | 1020.0 |
| 20260510125505 | 44 | 338 | 1.0 | 5.0 | 0.00 | 0.00 | 0.00 | 67 | 1020.0 |
| 20260510125008 | 43 | 113 | 1.0 | 5.0 | 0.00 | 0.00 | 0.00 | 68 | 1019.9 |
| 20260510124503 | 43 | 41 | 2.0 | 5.0 | 0.00 | 0.00 | 0.00 | 68 | 1019.9 |
| 20260510124002 | 42 | 298 | 2.0 | 5.0 | 0.00 | 0.00 | 0.00 | 70 | 1019.8 |
| 20260510123503 | 41 | 279 | 2.0 | 4.0 | 0.00 | 0.00 | 0.00 | 72 | 1019.8 |
| 20260510123006 | 41 | 296 | 1.0 | 3.0 | 0.00 | 0.00 | 0.00 | 72 | 1019.8 |
| 20260510122501 | 40 | 279 | 0.0 | 3.0 | 0.00 | 0.00 | 0.00 | 73 | 1019.7 |
| 20260510122004 | 40 | 282 | 1.0 | 3.0 | 0.00 | 0.00 | 0.00 | 74 | 1019.7 |
| 20260510121514 | 40 | 309 | 1.0 | 4.0 | 0.00 | 0.00 | 0.00 | 74 | 1019.5 |
| 20260510121003 | 39 | 254 | 2.0 | 7.0 | 0.00 | 0.00 | 0.00 | 75 | 1019.5 |
| 20260510120504 | 39 | 286 | 3.0 | 7.0 | 0.00 | 0.00 | 0.00 | 76 | 1019.4 |
| 20260510120021 | 39 | 252 | 2.0 | 4.0 | 0.00 | 0.00 | 0.00 | 78 | 1019.3 |
| 20260510115506 | 38 | 287 | 2.0 | 5.0 | 0.00 | 0.00 | 0.00 | 78 | 1019.2 |
| 20260510115003 | 38 | 250 | 2.0 | 5.0 | 0.00 | 0.00 | 0.00 | 78 | 1019.1 |
| 20260510114513 | 38 | 257 | 2.0 | 4.0 | 0.00 | 0.00 | 0.00 | 78 | 1019.1 |
| 20260510114002 | 38 | 259 | 2.0 | 5.0 | 0.00 | 0.00 | 0.00 | 78 | 1019.1 |
| 20260510113502 | 38 | 272 | 2.0 | 5.0 | 0.00 | 0.00 | 0.00 | 78 | 1018.9 |
| 20260510113008 | 38 | 257 | 1.0 | 3.0 | 0.00 | 0.00 | 0.00 | 79 | 1018.8 |
| 20260510112503 | 38 | 265 | 1.0 | 2.0 | 0.00 | 0.00 | 0.00 | 78 | 1018.8 |
| 20260510112007 | 38 | 309 | 1.0 | 3.0 | 0.00 | 0.00 | 0.00 | 79 | 1018.9 |
| 20260510111503 | 38 | 265 | 1.0 | 3.0 | 0.00 | 0.00 | 0.00 | 79 | 1018.8 |
| 20260510111003 | 38 | 265 | 1.0 | 3.0 | 0.00 | 0.00 | 0.00 | 79 | 1018.8 |
| 20260510110506 | 38 | 250 | 1.0 | 3.0 | 0.00 | 0.00 | 0.00 | 79 | 1018.7 |
| 20260510110022 | 38 | 265 | 1.0 | 3.0 | 0.00 | 0.00 | 0.00 | 80 | 1018.7 |
| 20260510105502 | 38 | 227 | 1.0 | 3.0 | 0.00 | 0.00 | 0.00 | 80 | 1018.7 |
| 20260510105003 | 38 | 225 | 1.0 | 2.0 | 0.00 | 0.00 | 0.00 | 79 | 1018.6 |
| 20260510104503 | 38 | 291 | 0.0 | 3.0 | 0.00 | 0.00 | 0.00 | 79 | 1018.5 |
| 20260510104005 | 37 | 309 | 1.0 | 5.0 | 0.00 | 0.00 | 0.00 | 79 | 1018.4 |
| 20260510103503 | 37 | 221 | 1.0 | 5.0 | 0.00 | 0.00 | 0.00 | 79 | 1018.4 |
| 20260510103009 | 37 | 341 | 1.0 | 4.0 | 0.00 | 0.00 | 0.00 | 80 | 1018.4 |
| 20260510102507 | 37 | 189 | 2.0 | 4.0 | 0.00 | 0.00 | 0.00 | 79 | 1018.1 |
| 20260510102003 | 37 | 275 | 1.0 | 4.0 | 0.00 | 0.00 | 0.00 | 80 | 1018.3 |
| 20260510101515 | 37 | 249 | 1.0 | 4.0 | 0.00 | 0.00 | 0.00 | 79 | 1018.1 |
| 20260510101005 | 37 | 230 | 1.0 | 3.0 | 0.00 | 0.00 | 0.00 | 78 | 1018.0 |
| 20260510100506 | 37 | 282 | 0.0 | 3.0 | 0.00 | 0.00 | 0.00 | 79 | 1017.9 |
| 20260510100012 | 38 | 265 | 1.0 | 3.0 | 0.00 | 0.00 | 0.00 | 79 | 1017.8 |
| 20260510095504 | 38 | 265 | 1.0 | 3.0 | 0.00 | 0.00 | 0.00 | 79 | 1017.7 |
| 20260510095009 | 38 | 219 | 2.0 | 4.0 | 0.00 | 0.00 | 0.00 | 78 | 1017.5 |
| 20260510094520 | 38 | 265 | 1.0 | 5.0 | 0.00 | 0.00 | 0.00 | 78 | 1017.6 |
| 20260510094002 | 38 | 245 | 2.0 | 5.0 | 0.00 | 0.00 | 0.00 | 79 | 1017.5 |
| 20260510093502 | 38 | 265 | 2.0 | 4.0 | 0.00 | 0.00 | 0.00 | 80 | 1017.6 |
| 20260510093012 | 38 | 259 | 2.0 | 4.0 | 0.00 | 0.00 | 0.00 | 80 | 1017.5 |
| 20260510092504 | 38 | 221 | 1.0 | 3.0 | 0.00 | 0.00 | 0.00 | 80 | 1017.4 |
| 20260510092008 | 38 | 273 | 2.0 | 4.0 | 0.00 | 0.00 | 0.00 | 80 | 1017.4 |
| 20260510091519 | 38 | 218 | 2.0 | 4.0 | 0.00 | 0.00 | 0.00 | 80 | 1017.4 |
| 20260510091003 | 38 | 255 | 1.0 | 4.0 | 0.00 | 0.00 | 0.00 | 81 | 1017.4 |
| 20260510090503 | 38 | 238 | 2.0 | 4.0 | 0.00 | 0.00 | 0.00 | 80 | 1017.4 |
| 20260510090020 | 38 | 232 | 1.0 | 3.0 | 0.00 | 0.00 | 0.00 | 80 | 1017.2 |
| 20260510085509 | 38 | 242 | 1.0 | 3.0 | 0.00 | 0.00 | 0.00 | 80 | 1017.2 |
| 20260510085007 | 38 | 247 | 2.0 | 3.0 | 0.00 | 0.00 | 0.00 | 80 | 1017.2 |
| 20260510084514 | 38 | 243 | 1.0 | 3.0 | 0.00 | 0.00 | 0.00 | 80 | 1017.1 |
| 20260510084003 | 38 | 227 | 2.0 | 4.0 | 0.00 | 0.00 | 0.00 | 80 | 1017.0 |
| 20260510083503 | 38 | 221 | 2.0 | 4.0 | 0.00 | 0.00 | 0.00 | 79 | 1017.0 |
| 20260510083013 | 38 | 234 | 1.0 | 4.0 | 0.00 | 0.00 | 0.00 | 79 | 1017.0 |
| 20260510082506 | 38 | 221 | 2.0 | 4.0 | 0.00 | 0.00 | 0.00 | 78 | 1016.9 |
| 20260510082013 | 38 | 226 | 2.0 | 4.0 | 0.00 | 0.00 | 0.00 | 77 | 1016.8 |
| 20260510081510 | 38 | 247 | 2.0 | 4.0 | 0.00 | 0.00 | 0.00 | 76 | 1016.8 |
| 20260510081007 | 38 | 212 | 1.0 | 3.0 | 0.00 | 0.00 | 0.00 | 75 | 1016.7 |
| 20260510080509 | 38 | 221 | 2.0 | 3.0 | 0.00 | 0.00 | 0.00 | 75 | 1016.8 |
| 20260510080028 | 38 | 238 | 1.0 | 3.0 | 0.00 | 0.00 | 0.00 | 73 | 1016.7 |
| 20260510075503 | 38 | 190 | 2.0 | 3.0 | 0.00 | 0.00 | 0.00 | 72 | 1016.7 |
| 20260510075007 | 39 | 236 | 2.0 | 3.0 | 0.00 | 0.00 | 0.00 | 71 | 1016.6 |
| 20260510074510 | 39 | 257 | 2.0 | 3.0 | 0.00 | 0.00 | 0.00 | 71 | 1016.6 |
| 20260510074002 | 39 | 196 | 1.0 | 3.0 | 0.00 | 0.00 | 0.00 | 70 | 1016.4 |
| 20260510073505 | 39 | 249 | 1.0 | 2.0 | 0.00 | 0.00 | 0.00 | 69 | 1016.5 |
| 20260510073019 | 39 | 265 | 1.0 | 6.0 | 0.00 | 0.00 | 0.00 | 68 | 1016.5 |
| 20260510072509 | 39 | 230 | 1.0 | 6.0 | 0.00 | 0.00 | 0.00 | 68 | 1016.5 |
| 20260510072004 | 39 | 219 | 1.0 | 4.0 | 0.00 | 0.00 | 0.00 | 68 | 1016.4 |
| 20260510071520 | 40 | 230 | 1.0 | 4.0 | 0.00 | 0.00 | 0.00 | 68 | 1016.4 |
| 20260510071006 | 40 | 234 | 1.0 | 4.0 | 0.00 | 0.00 | 0.00 | 65 | 1016.4 |
| 20260510070502 | 40 | 232 | 2.0 | 4.0 | 0.00 | 0.00 | 0.00 | 64 | 1016.5 |
| 20260510070016 | 40 | 257 | 2.0 | 4.0 | 0.00 | 0.00 | 0.00 | 64 | 1016.5 |
| 20260510065507 | 41 | 249 | 1.0 | 2.0 | 0.00 | 0.00 | 0.00 | 62 | 1016.5 |
| 20260510065012 | 41 | 250 | 1.0 | 2.0 | 0.00 | 0.00 | 0.00 | 62 | 1016.6 |
| 20260510064507 | 41 | 51 | 0.0 | 2.0 | 0.00 | 0.00 | 0.00 | 62 | 1016.5 |
| 20260510064003 | 41 | 279 | 0.0 | 2.0 | 0.00 | 0.00 | 0.00 | 61 | 1016.4 |
| 20260510063505 | 42 | 275 | 1.0 | 2.0 | 0.00 | 0.00 | 0.00 | 61 | 1016.4 |
| 20260510063009 | 42 | 249 | 1.0 | 2.0 | 0.00 | 0.00 | 0.00 | 60 | 1016.3 |
| 20260510062506 | 42 | 221 | 1.0 | 2.0 | 0.00 | 0.00 | 0.00 | 59 | 1016.3 |
| 20260510062007 | 42 | 212 | 1.0 | 4.0 | 0.00 | 0.00 | 0.00 | 59 | 1016.3 |
| 20260510061522 | 42 | 243 | 1.0 | 4.0 | 0.00 | 0.00 | 0.00 | 59 | 1016.2 |
| 20260510061007 | 42 | 255 | 2.0 | 6.0 | 0.00 | 0.00 | 0.00 | 59 | 1016.2 |
| 20260510060507 | 43 | 265 | 2.0 | 6.0 | 0.00 | 0.00 | 0.00 | 58 | 1016.2 |
| 20260510060035 | 43 | 291 | 2.0 | 6.0 | 0.00 | 0.00 | 0.00 | 57 | 1016.3 |
| 20260510055509 | 43 | 272 | 2.0 | 7.0 | 0.00 | 0.00 | 0.00 | 55 | 1016.3 |
| 20260510055008 | 43 | 270 | 3.0 | 7.0 | 0.00 | 0.00 | 0.00 | 54 | 1016.2 |
| 20260510054510 | 44 | 265 | 1.0 | 4.0 | 0.00 | 0.00 | 0.00 | 52 | 1016.2 |
| 20260510054004 | 44 | 265 | 2.0 | 4.0 | 0.00 | 0.00 | 0.00 | 52 | 1016.0 |
| 20260510053504 | 45 | 273 | 2.0 | 3.0 | 0.00 | 0.00 | 0.00 | 52 | 1016.0 |
| 20260510053018 | 45 | 273 | 2.0 | 4.0 | 0.00 | 0.00 | 0.00 | 53 | 1015.9 |
| 20260510052509 | 45 | 257 | 1.0 | 4.0 | 0.00 | 0.00 | 0.00 | 50 | 1015.9 |
| 20260510052007 | 46 | 291 | 2.0 | 3.0 | 0.00 | 0.00 | 0.00 | 49 | 1015.9 |
| 20260510051516 | 46 | 291 | 1.0 | 3.0 | 0.00 | 0.00 | 0.00 | 50 | 1015.9 |
| 20260510051007 | 46 | 273 | 1.0 | 3.0 | 0.00 | 0.00 | 0.00 | 51 | 1015.9 |
| 20260510050508 | 47 | 282 | 0.0 | 4.0 | 0.00 | 0.00 | 0.00 | 50 | 1015.9 |
| 20260510050014 | 47 | 304 | 2.0 | 5.0 | 0.00 | 0.00 | 0.00 | 49 | 1016.0 |
| 20260510045509 | 47 | 309 | 3.0 | 7.0 | 0.00 | 0.00 | 0.00 | 48 | 1016.0 |
| 20260510045010 | 47 | 297 | 2.0 | 8.0 | 0.00 | 0.00 | 0.00 | 46 | 1016.0 |
| 20260510044507 | 47 | 338 | 3.0 | 10.0 | 0.00 | 0.00 | 0.00 | 45 | 1016.0 |
| 20260510044003 | 48 | 321 | 3.0 | 10.0 | 0.00 | 0.00 | 0.00 | 45 | 1016.1 |
| 20260510043506 | 48 | 313 | 4.0 | 9.0 | 0.00 | 0.00 | 0.00 | 45 | 1016.1 |
| 20260510043004 | 48 | 302 | 4.0 | 9.0 | 0.00 | 0.00 | 0.00 | 44 | 1015.9 |
| 20260510042507 | 48 | 311 | 4.0 | 10.0 | 0.00 | 0.00 | 0.00 | 44 | 1015.9 |
| 20260510042011 | 48 | 309 | 3.0 | 10.0 | 0.00 | 0.00 | 0.00 | 44 | 1015.8 |
| 20260510041524 | 49 | 311 | 5.0 | 8.0 | 0.00 | 0.00 | 0.00 | 43 | 1015.8 |
| 20260510041003 | 49 | 298 | 4.0 | 9.0 | 0.00 | 0.00 | 0.00 | 43 | 1015.7 |
| 20260510040504 | 49 | 321 | 4.0 | 10.0 | 0.00 | 0.00 | 0.00 | 43 | 1015.7 |
| 20260510040006 | 49 | 324 | 5.0 | 10.0 | 0.00 | 0.00 | 0.00 | 42 | 1015.7 |
| 20260510035504 | 49 | 321 | 4.0 | 9.0 | 0.00 | 0.00 | 0.00 | 42 | 1015.6 |
| 20260510035005 | 50 | 324 | 4.0 | 8.0 | 0.00 | 0.00 | 0.00 | 41 | 1015.6 |
| 20260510034522 | 50 | 311 | 3.0 | 8.0 | 0.00 | 0.00 | 0.00 | 41 | 1015.5 |
| 20260510034006 | 50 | 317 | 4.0 | 9.0 | 0.00 | 0.00 | 0.00 | 41 | 1015.5 |
| 20260510033507 | 50 | 281 | 5.0 | 11.0 | 0.00 | 0.00 | 0.00 | 41 | 1015.4 |
| 20260510033014 | 50 | 312 | 3.0 | 11.0 | 0.00 | 0.00 | 0.00 | 41 | 1015.4 |
| 20260510032508 | 50 | 279 | 5.0 | 13.0 | 0.00 | 0.00 | 0.00 | 40 | 1015.4 |
| 20260510032008 | 50 | 286 | 7.0 | 13.0 | 0.00 | 0.00 | 0.00 | 40 | 1015.2 |
| 20260510031514 | 50 | 317 | 6.0 | 12.0 | 0.00 | 0.00 | 0.00 | 41 | 1015.1 |
| 20260510031003 | 50 | 295 | 5.0 | 11.0 | 0.00 | 0.00 | 0.00 | 41 | 1015.1 |
| 20260510030503 | 50 | 300 | 3.0 | 9.0 | 0.00 | 0.00 | 0.00 | 40 | 1015.0 |
| 20260510030016 | 50 | 293 | 4.0 | 10.0 | 0.00 | 0.00 | 0.00 | 40 | 1015.0 |
| 20260510025506 | 51 | 291 | 3.0 | 10.0 | 0.00 | 0.00 | 0.00 | 40 | 1014.9 |
| 20260510025004 | 51 | 304 | 4.0 | 10.0 | 0.00 | 0.00 | 0.00 | 40 | 1014.9 |
| 20260510024523 | 51 | 307 | 5.0 | 10.0 | 0.00 | 0.00 | 0.00 | 40 | 1014.8 |
| 20260510024006 | 51 | 252 | 4.0 | 9.0 | 0.00 | 0.00 | 0.00 | 39 | 1014.6 |
| 20260510023506 | 51 | 317 | 5.0 | 9.0 | 0.00 | 0.00 | 0.00 | 39 | 1014.5 |
| 20260510023023 | 51 | 309 | 3.0 | 9.0 | 0.00 | 0.00 | 0.00 | 39 | 1014.5 |
| 20260510022503 | 52 | 273 | 5.0 | 10.0 | 0.00 | 0.00 | 0.00 | 38 | 1014.4 |
| 20260510022007 | 52 | 241 | 5.0 | 10.0 | 0.00 | 0.00 | 0.00 | 37 | 1014.3 |
| 20260510021527 | 52 | 286 | 5.0 | 10.0 | 0.00 | 0.00 | 0.00 | 37 | 1014.2 |
| 20260510021004 | 52 | 311 | 5.0 | 10.0 | 0.00 | 0.00 | 0.00 | 37 | 1014.1 |
| 20260510020502 | 52 | 252 | 4.0 | 10.0 | 0.00 | 0.00 | 0.00 | 36 | 1014.0 |
| 20260510020010 | 53 | 293 | 4.0 | 14.0 | 0.00 | 0.00 | 0.00 | 36 | 1013.8 |
| 20260510015503 | 53 | 309 | 5.0 | 14.0 | 0.00 | 0.00 | 0.00 | 36 | 1013.7 |
| 20260510015005 | 53 | 324 | 5.0 | 11.0 | 0.00 | 0.00 | 0.00 | 35 | 1013.5 |
| 20260510014520 | 53 | 262 | 4.0 | 10.0 | 0.00 | 0.00 | 0.00 | 35 | 1013.4 |
| 20260510014008 | 54 | 275 | 4.0 | 12.0 | 0.00 | 0.00 | 0.00 | 35 | 1013.3 |
| 20260510013510 | 54 | 265 | 5.0 | 14.0 | 0.00 | 0.00 | 0.00 | 34 | 1013.3 |
| 20260510013024 | 54 | 324 | 6.0 | 14.0 | 0.00 | 0.00 | 0.00 | 34 | 1013.2 |
| 20260510012506 | 54 | 321 | 7.0 | 14.0 | 0.00 | 0.00 | 0.00 | 34 | 1013.2 |
| 20260510012007 | 54 | 293 | 6.0 | 18.0 | 0.00 | 0.00 | 0.00 | 33 | 1013.0 |
| 20260510011530 | 55 | 275 | 9.0 | 18.0 | 0.00 | 0.00 | 0.00 | 33 | 1012.9 |
| 20260510011010 | 55 | 275 | 9.0 | 17.0 | 0.00 | 0.00 | 0.00 | 33 | 1012.8 |
| 20260510010508 | 55 | 272 | 6.0 | 14.0 | 0.00 | 0.00 | 0.00 | 34 | 1012.8 |
| 20260510010023 | 55 | 249 | 5.0 | 14.0 | 0.00 | 0.00 | 0.00 | 33 | 1012.8 |
| 20260510005508 | 56 | 261 | 7.0 | 14.0 | 0.00 | 0.00 | 0.00 | 33 | 1012.6 |
| 20260510005006 | 56 | 277 | 7.0 | 16.0 | 0.00 | 0.00 | 0.00 | 32 | 1012.4 |
| 20260510004523 | 56 | 277 | 7.0 | 16.0 | 0.00 | 0.00 | 0.00 | 32 | 1012.4 |
| 20260510004007 | 56 | 321 | 6.0 | 16.0 | 0.00 | 0.00 | 0.00 | 32 | 1012.3 |
| 20260510003509 | 57 | 319 | 8.0 | 15.0 | 0.00 | 0.00 | 0.00 | 31 | 1012.3 |
| 20260510003033 | 57 | 296 | 6.0 | 17.0 | 0.00 | 0.00 | 0.00 | 31 | 1012.4 |
| 20260510002509 | 57 | 287 | 8.0 | 18.0 | 0.00 | 0.00 | 0.00 | 31 | 1012.3 |
| 20260510002013 | 58 | 281 | 9.0 | 18.0 | 0.00 | 0.00 | 0.00 | 31 | 1012.3 |
| 20260510001529 | 58 | 286 | 5.0 | 20.0 | 0.00 | 0.00 | 0.00 | 30 | 1012.3 |
| 20260510001007 | 58 | 307 | 6.0 | 20.0 | 0.00 | 0.00 | 0.00 | 31 | 1012.3 |
| 20260510000510 | 58 | 270 | 10.0 | 19.0 | 0.00 | 0.00 | 0.00 | 30 | 1012.2 |
| 20260510000027 | 58 | 242 | 12.0 | 19.0 | 0.00 | 0.00 | 0.00 | 29 | 1012.1 |
| 20260509235506 | 58 | 300 | 7.0 | 19.0 | 0.00 | 0.00 | 0.00 | 29 | 1012.0 |
| 20260509235009 | 59 | 305 | 12.0 | 20.0 | 0.00 | 0.00 | 0.00 | 29 | 1012.1 |
| 20260509234534 | 59 | 319 | 11.0 | 21.0 | 0.00 | 0.00 | 0.00 | 30 | 1012.1 |
| 20260509234008 | 59 | 291 | 12.0 | 21.0 | 0.00 | 0.00 | 0.00 | 30 | 1012.0 |
| 20260509233508 | 59 | 324 | 6.0 | 20.0 | 0.00 | 0.00 | 0.00 | 29 | 1011.8 |
| 20260509233024 | 59 | 309 | 11.0 | 20.0 | 0.00 | 0.00 | 0.00 | 30 | 1011.8 |
| 20260509232511 | 59 | 290 | 10.0 | 19.0 | 0.00 | 0.00 | 0.00 | 28 | 1011.8 |
| 20260509232010 | 59 | 307 | 6.0 | 23.0 | 0.00 | 0.00 | 0.00 | 31 | 1011.8 |
| 20260509231528 | 59 | 327 | 11.0 | 23.0 | 0.00 | 0.00 | 0.00 | 30 | 1011.7 |
| 20260509231010 | 59 | 316 | 11.0 | 23.0 | 0.00 | 0.00 | 0.00 | 29 | 1011.6 |
| 20260509230510 | 60 | 316 | 11.0 | 22.0 | 0.00 | 0.00 | 0.00 | 28 | 1011.5 |
| 20260509230021 | 60 | 287 | 11.0 | 19.0 | 0.00 | 0.00 | 0.00 | 28 | 1011.5 |
| 20260509225510 | 60 | 316 | 7.0 | 15.0 | 0.00 | 0.00 | 0.00 | 28 | 1011.3 |
| 20260509225007 | 61 | 11 | 6.0 | 17.0 | 0.00 | 0.00 | 0.00 | 29 | 1011.2 |
| 20260509224504 | 61 | 298 | 9.0 | 17.0 | 0.00 | 0.00 | 0.00 | 29 | 1011.1 |
| 20260509224003 | 61 | 314 | 6.0 | 16.0 | 0.00 | 0.00 | 0.00 | 27 | 1011.2 |
| 20260509223506 | 60 | 178 | 4.0 | 16.0 | 0.00 | 0.00 | 0.00 | 28 | 1011.1 |
| 20260509223004 | 61 | 337 | 7.0 | 19.0 | 0.00 | 0.00 | 0.00 | 28 | 1011.1 |
| 20260509222503 | 61 | 15 | 9.0 | 22.0 | 0.00 | 0.00 | 0.00 | 27 | 1011.1 |
| 20260509222003 | 61 | 298 | 6.0 | 22.0 | 0.00 | 0.00 | 0.00 | 31 | 1011.0 |
| 20260509221504 | 61 | 306 | 7.0 | 21.0 | 0.00 | 0.00 | 0.00 | 28 | 1010.9 |
| 20260509221003 | 61 | 279 | 5.0 | 21.0 | 0.00 | 0.00 | 0.00 | 29 | 1010.8 |
| 20260509220503 | 61 | 286 | 9.0 | 20.0 | 0.00 | 0.00 | 0.00 | 29 | 1010.8 |
| 20260509220008 | 61 | 281 | 9.0 | 23.0 | 0.00 | 0.00 | 0.00 | 29 | 1010.8 |
| 20260509215506 | 60 | 259 | 11.0 | 24.0 | 0.00 | 0.00 | 0.00 | 30 | 1010.9 |
| 20260509215003 | 61 | 312 | 13.0 | 24.0 | 0.00 | 0.00 | 0.00 | 28 | 1011.0 |
| 20260509214502 | 61 | 310 | 7.0 | 21.0 | 0.00 | 0.00 | 0.00 | 28 | 1010.9 |
| 20260509214007 | 61 | 9 | 10.0 | 21.0 | 0.00 | 0.00 | 0.00 | 28 | 1010.8 |
| 20260509213502 | 61 | 297 | 8.0 | 22.0 | 0.00 | 0.00 | 0.00 | 29 | 1010.7 |
| 20260509213004 | 61 | 298 | 9.0 | 22.0 | 0.00 | 0.00 | 0.00 | 31 | 1010.7 |
| 20260509212503 | 61 | 252 | 10.0 | 20.0 | 0.00 | 0.00 | 0.00 | 30 | 1010.5 |
| 20260509212005 | 62 | 323 | 7.0 | 20.0 | 0.00 | 0.00 | 0.00 | 29 | 1010.4 |
| 20260509211506 | 62 | 344 | 9.0 | 19.0 | 0.00 | 0.00 | 0.00 | 31 | 1010.5 |
| 20260509211002 | 62 | 93 | 2.0 | 20.0 | 0.00 | 0.00 | 0.00 | 37 | 1010.4 |
| 20260509210502 | 61 | 307 | 7.0 | 20.0 | 0.00 | 0.00 | 0.00 | 30 | 1010.3 |
| 20260509210004 | 60 | 300 | 9.0 | 19.0 | 0.00 | 0.00 | 0.00 | 34 | 1010.2 |
| 20260509205501 | 60 | 247 | 8.0 | 23.0 | 0.00 | 0.00 | 0.00 | 31 | 1010.3 |
| 20260509205003 | 60 | 313 | 13.0 | 25.0 | 0.00 | 0.00 | 0.00 | 30 | 1010.2 |